Stations météo

réclame
Mon MeteoGroup
München-Flughafen, Allemagne (10870): Température de l'air & dewpoint: 19.09.2018 09:00:00 - 25.09.2018 09:00:00 (CEST)München-Flughafen, Allemagne (10870): Température de l'air 5cm & Température de l'air -5cm: 19.09.2018 09:00:00 - 25.09.2018 09:00:00 (CEST)München-Flughafen, Allemagne (10870): Température de l'air -20cm & Température de l'air -100cm: 19.09.2018 09:00:00 - 25.09.2018 09:00:00 (CEST)München-Flughafen, Allemagne (10870): Vitesse du vent & gusts: 19.09.2018 09:00:00 - 25.09.2018 09:00:00 (CEST)München-Flughafen, Allemagne (10870): Direction du vent: 19.09.2018 09:00:00 - 25.09.2018 09:00:00 (CEST)München-Flughafen, Allemagne (10870): reduced air pressure: 19.09.2018 09:00:00 - 25.09.2018 09:00:00 (CEST)München-Flughafen, Allemagne (10870): visibility: 19.09.2018 09:00:00 - 25.09.2018 09:00:00 (CEST)München-Flughafen, Allemagne (10870): Ensoleillement: 19.09.2018 09:00:00 - 25.09.2018 09:00:00 (CEST)München-Flughafen, Allemagne (10870): Quantités de précipitations: 19.09.2018 09:00:00 - 25.09.2018 09:00:00 (CEST)
Date & Time tt [°C] td [°C] tt 5cm [°C] tt -5cm [°C] tt -20cm [°C] tt -100cm [°C] ff [km/h] ff [knt] fx [km/h] fx [knt] dd ppp [hPa] vv [km] sd [min] rr [mm]
25.09.2018 09:00:00 6,8 1,9 8,1 6,9 12,4 17,8 2 1 5 3 - 1038,9 10 60 0,0
25.09.2018 08:00:00 3,7 1,8 2,2 4,3 12,6 17,8 4 2 8 4 WSW 1038,8 40 21 0,0
25.09.2018 07:00:00 2,3 1,6 -0,2 4,5 12,8 17,8 2 1 8 4 - 1038,5 10 0 0,0
25.09.2018 06:00:00 2,0 1,2 0,3 5,1 13,0 17,8 5 3 8 4 SW 1038,2 30 0 0,0
25.09.2018 05:00:00 2,8 1,9 1,5 5,0 13,3 17,8 2 1 8 4 - 1037,8 10 0 0,0
25.09.2018 04:00:00 2,0 1,3 -0,1 4,9 13,5 17,8 8 4 14 8 SW 1037,5 10 0 0,0
25.09.2018 03:00:00 3,1 1,1 0,8 5,5 13,7 17,9 11 6 15 8 WSW 1037,3 45 0 0,0
25.09.2018 02:00:00 4,5 2,2 1,8 6,1 14,0 17,9 13 7 15 8 WSW 1036,7 50 0 0,0
25.09.2018 01:00:00 5,2 2,5 4,2 6,4 14,3 17,9 11 6 16 9 WSW 1036,1 50 0 0,0
25.09.2018 00:00:00 5,8 2,3 3,8 6,5 14,5 17,9 11 6 16 8 W 1036,0 50 0 0,0
24.09.2018 23:00:00 4,7 1,7 2,7 6,8 14,8 17,9 13 7 16 9 W 1035,8 10 0 0,0
24.09.2018 22:00:00 5,1 1,1 2,8 7,4 15,1 17,9 8 5 15 8 W 1035,4 55 0 0,0
24.09.2018 21:00:00 7,9 1,8 5,6 8,1 15,3 17,9 11 6 16 9 W 1034,5 10 0 0,0
24.09.2018 20:00:00 9,3 1,3 6,2 9,0 15,4 17,9 9 5 16 9 W 1033,5 60 2 0,0
24.09.2018 19:00:00 10,9 0,6 8,3 10,4 15,5 17,9 8 5 26 14 W 1032,6 60 60 0,0
24.09.2018 18:00:00 11,8 -0,2 11,8 12,0 15,5 17,9 16 9 33 18 WNW 1032,0 10 53 0,0
24.09.2018 17:00:00 12,4 1,0 14,5 13,4 15,4 17,9 18 10 31 17 NW 1031,7 10 20 0,0
24.09.2018 16:00:00 11,5 1,2 12,0 15,1 15,2 17,9 16 9 34 18 WNW 1031,9 10 40 0,0
24.09.2018 15:00:00 12,5 2,1 17,5 15,1 15,1 18,0 20 11 35 19 NW 1031,9 60 28 0,0
24.09.2018 14:00:00 12,0 2,3 14,8 16,0 15,0 18,0 21 11 36 19 WNW 1031,9 10 42 0,0
24.09.2018 13:00:00 11,0 1,8 13,5 15,0 15,0 18,0 23 13 38 20 WNW 1032,2 60 35 0,0
24.09.2018 12:00:00 9,8 1,9 12,1 13,7 15,0 18,0 24 13 34 18 WNW 1032,5 60 23 0,0
24.09.2018 11:00:00 9,8 3,7 12,2 12,1 15,2 18,0 21 12 33 18 W 1032,2 60 25 0,0
24.09.2018 10:00:00 8,4 3,6 9,3 10,7 15,4 18,0 19 10 29 16 WNW 1031,7 60 5 0,0
24.09.2018 09:00:00 7,8 4,5 8,4 9,8 15,6 18,0 13 7 22 12 W 1030,5 60 3 0,0
24.09.2018 08:00:00 6,9 4,7 6,6 8,7 15,9 18,0 11 6 22 12 WSW 1029,4 60 3 0,0
24.09.2018 07:00:00 7,2 4,0 5,6 8,8 16,2 18,0 17 9 29 16 WNW 1027,8 70 0 0,0
24.09.2018 06:00:00 8,0 4,5 7,4 9,8 16,4 18,0 18 10 34 18 WNW 1026,5 70 0 0,0
24.09.2018 05:00:00 8,3 5,0 8,0 10,1 16,7 18,0 22 12 34 18 NW 1025,4 10 0 0,0
24.09.2018 04:00:00 8,5 5,2 7,8 10,6 17,0 18,0 21 11 37 20 WNW 1024,8 50 0 0,0
24.09.2018 03:00:00 9,5 6,0 8,7 11,3 17,2 18,0 18 10 44 24 WNW 1023,3 40 0 0,0
24.09.2018 02:00:00 10,2 7,1 9,1 12,0 17,4 18,0 26 14 45 24 WNW 1022,4 10 0 0,0
24.09.2018 01:00:00 10,8 6,8 9,4 12,8 17,6 18,0 29 16 55 30 WNW 1020,4 40 0 0,4
24.09.2018 00:00:00 13,1 10,2 11,9 14,1 17,8 18,1 28 15 51 28 W 1016,6 10 0 0,8
23.09.2018 23:00:00 14,2 12,2 13,5 14,8 18,0 18,1 22 12 49 26 W 1012,5 15 0 3,2
23.09.2018 22:00:00 14,2 13,0 13,8 15,3 18,0 18,1 21 12 59 32 W 1011,1 9 0 6,1
23.09.2018 21:00:00 14,5 11,9 13,9 17,0 18,0 18,1 42 23 93 50 WNW 1009,3 8 0 1,6
23.09.2018 20:00:00 23,2 14,5 21,7 18,3 18,0 18,1 34 19 61 33 WSW 1005,0 50 0 0,0
23.09.2018 19:00:00 24,0 14,3 22,1 18,7 17,8 18,1 42 23 69 37 WSW 1004,6 70 54 0,0
23.09.2018 18:00:00 24,8 14,8 23,7 19,8 17,6 18,1 41 22 60 32 WSW 1005,3 10 50 0,0
23.09.2018 17:00:00 24,6 14,6 23,6 20,5 17,4 18,1 34 18 57 31 WSW 1006,7 82 32 0,0
23.09.2018 16:00:00 25,1 15,5 25,8 22,0 17,1 18,1 35 19 63 34 WSW 1008,2 70 60 0,0
23.09.2018 15:00:00 24,5 15,0 25,4 22,0 16,8 18,1 41 22 60 32 WSW 1009,7 10 60 0,0
23.09.2018 14:00:00 22,7 15,2 24,5 20,3 16,6 18,1 39 21 55 30 WSW 1011,7 70 20 0,0
23.09.2018 13:00:00 20,9 14,9 21,1 19,9 16,5 18,1 37 20 58 31 WSW 1013,1 10 16 0,0
23.09.2018 12:00:00 18,9 14,7 19,8 18,7 16,4 18,1 10 5 20 11 WSW 1014,6 60 9 0,0
23.09.2018 11:00:00 15,8 14,0 17,2 16,3 16,4 18,1 11 6 18 10 S 1015,4 10 3 0,3
23.09.2018 10:00:00 13,3 12,5 13,7 14,2 16,5 18,1 9 5 17 9 S 1016,6 20 0 0,7
23.09.2018 09:00:00 11,9 11,3 12,3 13,3 16,7 18,1 14 7 18 10 SSE 1017,2 7 0 1,4
23.09.2018 08:00:00 11,4 10,8 11,4 12,9 16,8 18,1 11 6 16 9 SSE 1018,0 4,0 0 2,0
23.09.2018 07:00:00 11,0 10,5 11,1 12,9 17,0 18,1 10 6 16 9 SSE 1018,7 4,0 0 2,0
23.09.2018 06:00:00 10,8 10,3 10,9 12,9 17,1 18,1 6 3 13 7 S 1019,7 5 0 1,9
23.09.2018 05:00:00 10,7 9,9 10,8 13,1 17,3 18,1 8 4 13 7 SSW 1020,7 10 0 0,9
23.09.2018 04:00:00 11,1 10,0 10,9 13,1 17,4 18,2 8 4 21 11 W 1021,1 20 0 0,8
23.09.2018 03:00:00 11,5 9,9 11,0 13,3 17,6 18,2 16 9 29 16 SW 1021,5 10 0 0,1
23.09.2018 02:00:00 11,7 9,6 10,9 13,6 17,8 18,2 16 9 21 11 SSW 1021,7 10 0 0,5
23.09.2018 01:00:00 12,2 8,9 11,0 13,9 17,9 18,2 8 5 25 14 W 1021,4 25 0 0,3
23.09.2018 00:00:00 13,0 9,2 11,8 14,5 18,1 18,2 9 5 15 8 SW 1020,9 30 0 0,0
22.09.2018 23:00:00 12,8 9,2 11,8 14,7 18,2 18,2 8 4 13 7 S 1020,8 30 0 0,1
22.09.2018 22:00:00 12,1 8,7 11,6 15,1 18,4 18,2 4 2 12 7 S 1021,5 30 0 0,0
22.09.2018 21:00:00 13,6 6,8 11,5 15,6 18,5 18,2 7 4 11 6 WSW 1021,2 40 0 0,0
22.09.2018 20:00:00 12,1 8,0 12,1 16,3 18,5 18,2 4 2 8 4 - 1020,9 10 0 0,0
22.09.2018 19:00:00 15,1 4,4 13,0 17,3 18,4 18,2 7 4 15 8 W 1020,7 70 21 0,0
22.09.2018 18:00:00 16,2 4,0 16,8 19,2 18,2 18,2 9 5 21 11 W 1020,8 10 46 0,0
22.09.2018 17:00:00 16,7 4,2 19,9 21,1 17,9 18,2 12 6 22 12 W 1020,8 70 60 0,0
22.09.2018 16:00:00 16,7 4,5 20,5 22,3 17,7 18,2 14 8 28 15 W 1021,7 70 60 0,0
22.09.2018 15:00:00 16,2 3,9 20,3 22,1 17,4 18,2 15 8 28 15 W 1022,1 60 54 0,0
22.09.2018 14:00:00 15,5 3,6 20,0 20,4 17,3 18,2 11 6 28 15 WSW 1023,0 60 54 0,0
22.09.2018 13:00:00 14,8 5,1 19,6 19,2 17,2 18,2 13 7 28 15 W 1023,7 10 49 0,0
22.09.2018 12:00:00 14,5 5,2 17,4 18,3 17,1 18,2 15 8 25 14 WNW 1024,3 10 60 0,0
22.09.2018 11:00:00 13,9 5,1 16,1 16,3 17,2 18,2 16 9 28 15 W 1024,8 10 60 0,0
22.09.2018 10:00:00 13,0 7,3 14,6 14,1 17,4 18,2 11 6 24 13 W 1024,8 10 12 0,0
22.09.2018 09:00:00 11,1 8,3 11,3 12,6 17,6 18,2 15 8 22 12 WSW 1024,8 45 0 0,0
22.09.2018 08:00:00 10,6 7,7 9,7 11,5 17,9 18,2 13 7 21 11 SW 1024,6 10 0 0,0
22.09.2018 07:00:00 10,1 7,5 8,5 11,3 18,1 18,2 9 5 16 9 WSW 1024,4 10 0 0,0
22.09.2018 06:00:00 10,1 6,9 8,1 11,9 18,4 18,2 10 6 16 9 WSW 1024,3 50 0 0,0
22.09.2018 05:00:00 11,5 7,8 10,2 12,6 18,7 18,2 13 7 20 11 WSW 1023,8 50 0 0,0
22.09.2018 04:00:00 11,7 7,8 11,1 13,1 18,9 18,2 13 7 18 10 WSW 1023,4 50 0 0,0
22.09.2018 03:00:00 11,7 7,8 10,7 13,4 19,2 18,2 14 7 24 13 WSW 1022,7 50 0 0,0
22.09.2018 02:00:00 12,3 8,5 11,7 14,0 19,5 18,2 15 8 22 12 W 1022,2 10 0 0,0
22.09.2018 01:00:00 12,5 8,8 11,1 14,2 19,8 18,2 13 7 28 15 W 1021,6 40 0 0,0
22.09.2018 00:00:00 12,6 9,0 11,2 14,7 20,1 18,2 18 10 31 17 W 1020,2 25 0 0,2
21.09.2018 23:00:00 12,9 8,4 11,1 15,4 20,3 18,2 16 9 40 22 WNW 1018,9 10 0 0,2
21.09.2018 22:00:00 13,8 10,4 12,5 17,0 20,4 18,2 28 15 68 37 WNW 1017,7 10 0 0,2
21.09.2018 21:00:00 19,3 13,0 18,2 19,6 20,5 18,2 31 17 49 26 W 1013,5 50 0 0,0
21.09.2018 20:00:00 22,2 12,8 21,2 21,1 20,5 18,2 28 15 43 23 W 1011,7 10 0 0,0
21.09.2018 19:00:00 24,2 12,0 22,7 22,2 20,4 18,2 21 11 32 17 W 1010,2 50 0 0,0
21.09.2018 18:00:00 24,9 11,2 24,0 23,6 20,1 18,2 22 12 33 18 W 1009,4 10 0 0,0
21.09.2018 17:00:00 25,9 11,0 25,2 25,1 19,8 18,2 25 14 52 28 WSW 1009,1 50 29 0,0
21.09.2018 16:00:00 26,7 9,7 26,5 26,9 19,4 18,1 41 22 57 31 WSW 1009,5 10 57 0,0
21.09.2018 15:00:00 28,1 12,1 29,7 27,8 18,9 18,1 37 20 52 28 WSW 1009,8 10 60 0,0
21.09.2018 14:00:00 27,6 12,7 30,4 27,5 18,4 18,1 25 13 35 19 WSW 1010,5 50 53 0,0
21.09.2018 13:00:00 26,8 12,0 30,2 27,3 18,0 18,1 16 9 31 17 W 1011,1 10 60 0,0
21.09.2018 12:00:00 25,2 14,1 28,1 25,1 17,8 18,1 18 10 28 15 W 1012,0 10 60 0,0
21.09.2018 11:00:00 22,5 13,4 25,0 22,5 17,7 18,1 8 4 13 7 WSW 1012,9 10 60 0,0
21.09.2018 10:00:00 19,4 13,1 22,0 19,1 17,8 18,1 8 4 11 6 S 1013,7 40 60 0,0
21.09.2018 09:00:00 16,2 12,5 16,2 15,3 18,0 18,1 6 4 9 5 SSW 1014,3 30 60 0,0
21.09.2018 08:00:00 13,2 11,8 12,7 12,5 18,2 18,1 2 1 9 5 - 1014,9 10 33 0,0
21.09.2018 07:00:00 9,0 8,8 7,3 11,8 18,5 18,1 5 3 8 4 SSW 1015,7 11 0 0,0
21.09.2018 06:00:00 9,0 9,0 7,2 12,3 18,8 18,1 0 0 4 2 N 1016,0 1,4 0 0,0
21.09.2018 05:00:00 8,9 8,5 7,6 12,7 19,1 18,1 0 0 4 2 N 1016,3 2,5 0 0,0
21.09.2018 04:00:00 8,7 8,3 7,3 13,2 19,4 18,1 2 1 4 2 S 1016,5 6 0 0,0
21.09.2018 03:00:00 10,5 10,2 8,8 13,7 19,7 18,1 4 2 4 2 E 1016,4 10 0 0,0
21.09.2018 02:00:00 11,3 11,2 8,6 14,3 20,0 18,1 2 1 4 2 S 1017,0 10 0 0,0
21.09.2018 01:00:00 12,4 12,2 9,4 14,9 20,3 18,1 2 1 2 1 ESE 1017,1 10 0 0,0
21.09.2018 00:00:00 13,4 13,4 9,7 15,8 20,6 18,1 2 1 5 3 - 1017,4 10 0 0,0
20.09.2018 23:00:00 13,7 13,1 11,4 16,8 20,9 18,1 0 0 5 3 N 1017,8 10 0 0,0
20.09.2018 22:00:00 16,2 14,0 12,3 17,9 21,1 18,1 3 2 8 4 NNE 1017,6 50 0 0,0
20.09.2018 21:00:00 16,0 13,3 13,2 19,2 21,2 18,1 5 3 5 3 E 1017,8 10 0 0,0
20.09.2018 20:00:00 19,3 14,4 15,0 21,1 21,1 18,1 2 1 21 11 ENE 1017,1 10 10 0,0
20.09.2018 19:00:00 23,6 13,5 19,4 23,6 20,9 18,1 9 5 18 10 ESE 1016,4 10 60 0,0
20.09.2018 18:00:00 24,9 13,3 24,9 26,3 20,5 18,1 9 5 21 11 ESE 1016,7 10 60 0,0
20.09.2018 17:00:00 25,6 12,6 27,3 28,2 20,0 18,1 8 4 21 11 E 1016,9 10 60 0,0
20.09.2018 16:00:00 25,9 13,0 29,3 29,6 19,5 18,1 7 4 15 8 E 1017,4 40 60 0,0
20.09.2018 15:00:00 26,0 13,7 30,1 30,1 18,9 18,1 8 4 12 7 E 1017,8 10 60 0,0
20.09.2018 14:00:00 25,5 14,0 30,4 29,2 18,4 18,1 5 3 13 7 - 1018,6 10 60 0,0
20.09.2018 13:00:00 24,5 13,4 28,7 27,7 18,0 18,1 7 4 13 7 S 1019,3 40 60 0,0
20.09.2018 12:00:00 23,4 13,0 29,0 25,3 17,8 18,1 5 3 12 7 - 1020,2 10 60 0,0
20.09.2018 11:00:00 21,4 13,4 24,4 22,1 17,7 18,1 9 5 13 7 S 1020,8 40 60 0,0
20.09.2018 10:00:00 18,9 13,3 20,8 19,1 17,7 18,1 8 4 15 8 S 1021,5 10 60 0,0
20.09.2018 09:00:00 16,5 12,8 16,8 15,7 17,9 18,1 4 2 8 4 S 1022,0 20 60 0,0
20.09.2018 08:00:00 13,3 11,9 12,8 12,9 18,1 18,1 2 1 5 3 SSE 1022,3 10 30 0,0
20.09.2018 07:00:00 10,9 10,5 9,9 12,5 18,4 18,1 0 0 5 3 N 1022,4 12 0 0,0
20.09.2018 06:00:00 11,6 11,5 9,8 12,7 18,6 18,1 0 0 4 2 N 1022,2 2,5 0 0,0
20.09.2018 05:00:00 11,1 11,1 9,0 13,0 18,9 18,1 0 0 4 2 N 1022,4 2,5 0 0,0
20.09.2018 04:00:00 11,5 11,5 9,7 13,3 19,2 18,1 2 1 8 4 - 1022,3 10 0 0,0
20.09.2018 03:00:00 11,0 10,7 9,3 13,7 19,5 18,1 4 2 5 3 - 1022,2 10 0 0,0
20.09.2018 02:00:00 12,5 12,5 10,1 14,3 19,8 18,1 2 1 5 3 ENE 1022,1 10 0 0,0
20.09.2018 01:00:00 12,5 12,2 10,0 15,0 20,0 18,1 4 2 5 3 E 1022,2 40 0 0,0
20.09.2018 00:00:00 13,9 12,9 11,0 15,6 20,3 18,1 2 1 4 2 - 1022,1 10 0 0,0
19.09.2018 23:00:00 14,3 12,4 12,0 16,4 20,5 18,1 4 2 5 3 NNW 1022,1 10 0 0,0
19.09.2018 22:00:00 15,6 13,6 13,0 17,2 20,7 18,1 4 2 8 4 - 1021,8 10 0 0,0
19.09.2018 21:00:00 15,2 12,6 13,6 18,5 20,8 18,1 0 0 9 5 N 1021,7 10 0 0,0
19.09.2018 20:00:00 17,5 12,9 15,0 20,3 20,8 18,1 4 2 8 4 - 1020,7 10 6 0,0
19.09.2018 19:00:00 23,5 11,2 19,8 22,9 20,6 18,1 2 1 4 2 NNW 1019,7 60 60 0,0
19.09.2018 18:00:00 24,5 12,0 24,8 25,1 20,3 18,1 0 0 9 5 N 1019,2 55 60 0,0
19.09.2018 17:00:00 24,7 12,8 28,3 26,6 19,9 18,0 4 2 13 7 - 1019,3 10 60 0,0
19.09.2018 16:00:00 25,6 12,8 28,9 28,0 19,4 18,0 5 3 13 7 - 1019,3 10 60 0,0
19.09.2018 15:00:00 24,1 12,0 30,1 27,7 19,0 18,0 8 4 16 8 S 1019,9 10 60 0,0
19.09.2018 14:00:00 23,6 13,5 28,4 26,9 18,6 18,0 4 2 13 7 - 1020,2 10 60 0,0
19.09.2018 13:00:00 22,0 14,0 27,8 26,0 18,4 18,0 4 2 9 5 - 1020,9 10 60 0,0
19.09.2018 12:00:00 20,4 14,3 25,4 23,2 18,4 18,0 4 2 8 4 - 1021,6 10 44 0,0
19.09.2018 11:00:00 18,2 14,6 19,5 18,6 18,4 18,0 5 3 23 13 NNE 1021,9 10 0 0,0
19.09.2018 10:00:00 16,2 14,1 16,2 16,7 18,5 18,0 11 6 15 8 SW 1021,8 45 0 0,0
19.09.2018 09:00:00 16,1 13,9 15,8 16,3 18,7 18,0 7 4 12 7 WNW 1021,8 45 8 0,0

tt = Température de l'air
td = dewpoint
tt 5cm = Température de l'air 5cm
tt -5cm = Température de l'air -5cm
tt -20cm = Température de l'air -20cm
tt -100cm = Température de l'air -100cm
ff = Vitesse du vent
fx = gusts
dd = Direction du vent
ppp = reduced air pressure
vv = visibility
sd = Ensoleillement
rr = Quantités de précipitations

stations d'obs. à proximité